This is the latest recevied weather packets stored in our database for station/object SP9EPI-13. If no packets are shown the sender has not sent any weather packets the latest 1 day(s).
| Time | Temp. | Humidity | Pressure | Rain* | Wind** | Luminosity | Snow |
|---|---|---|---|---|---|---|---|
| 1778003400 | 22.78° C | 30% | 1002.7 hPa | - | 5.81 m/s, 183° | - | - |
| 1778002801 | 22.78° C | 30% | 1002.7 hPa | - | 8.05 m/s, 191° | - | - |
| 1778002200 | 23.89° C | 29% | 1002.7 hPa | - | 8.05 m/s, 210° | - | - |
| 1778001601 | 23.89° C | 28% | 1002.7 hPa | - | 8.05 m/s, 233° | - | - |
| 1778001000 | 25° C | 26% | 1002.7 hPa | - | 13.86 m/s, 218° | - | - |
| 1778000400 | 26.11° C | 25% | 1002.7 hPa | - | 8.94 m/s, 249° | - | - |
| 1777999801 | 26.11° C | 24% | 1002.7 hPa | - | 15.2 m/s, 241° | - | - |
| 1777999201 | 26.11° C | 24% | 1002.7 hPa | - | 17.88 m/s, 208° | - | - |
| 1777998600 | 27.22° C | 24% | 1002.7 hPa | - | 12.96 m/s, 225° | - | - |
| 1777998001 | 27.78° C | 24% | 1002.7 hPa | - | 13.86 m/s, 173° | - | - |
| 1777997400 | 27.78° C | 23% | 1002.7 hPa | - | 12.07 m/s, 249° | - | - |
| 1777996800 | 27.78° C | 25% | 1002.7 hPa | - | 11.18 m/s, 186° | - | - |
| 1777996200 | 27.78° C | 23% | 1002.7 hPa | - | 8.05 m/s, 250° | - | - |
| 1777995600 | 27.78° C | 22% | 1002.7 hPa | - | 8.94 m/s, 232° | - | - |
| 1777995000 | 26.11° C | 25% | 1003 hPa | - | 9.83 m/s, 218° | - | - |
| 1777994400 | 26.11° C | 26% | 1003 hPa | - | 4.92 m/s, 221° | - | - |
| 1777993800 | 26.11° C | 26% | 1003 hPa | - | 11.18 m/s, 170° | - | - |
| 1777993201 | 26.11° C | 26% | 1003 hPa | - | 11.18 m/s, 196° | - | - |
| 1777992601 | 26.11° C | 27% | 1003 hPa | - | 8.94 m/s, 176° | - | - |
| 1777992001 | 26.11° C | 25% | 1003 hPa | - | 8.05 m/s, 219° | - | - |
| 1777991400 | 27.22° C | 25% | 1003 hPa | - | 8.94 m/s, 207° | - | - |
| 1777990803 | 26.11° C | 26% | 1003 hPa | - | 8.05 m/s, 242° | - | - |
| 1777990200 | 26.11° C | 26% | 1003.3 hPa | - | 9.83 m/s, 226° | - | - |
| 1777989600 | 26.11° C | 24% | 1003.3 hPa | - | 8.94 m/s, 200° | - | - |
| 1777989000 | 26.11° C | 24% | 1003.3 hPa | - | 9.83 m/s, 196° | - | - |
* Rain since midnight (hover to see other rain measurements)
** Current wind speed in m/s (hover to see current wind gust speed)